{"data":{"norad_id":63467,"intl_designator":"2025-070H","name":"STARLINK-33697","alt_names":[],"object_type":"PAYLOAD","status":"ACTIVE","operator":null,"country":"US","launch_date":"2025-04-06","launch_site_code":"AFETR","launch_vehicle":null,"mission":null,"orbit_class":"UNKNOWN","rcs_meters":null,"size_class":null,"mass_kg":null,"dimensions":null,"purposes":["comms"],"wikipedia_slug":null,"has_3d_model":false,"image_url":null,"decayed_at":null,"tle_current":{"epoch":"2026-05-24T20:23:47.097888Z","epoch_age_seconds":78293,"freshness":"FRESH","line1":"1 63467U 25070H   26144.84985067  .00012357  00000+0  45755-3 0  9990","line2":"2 63467  43.0011 189.7519 0002222 275.2312  84.8286 15.27598143 64626","mean_motion":15.27598143,"eccentricity":0.0002222,"inclination_deg":43.0011,"raan_deg":189.7519,"arg_perigee_deg":275.2312,"mean_anomaly_deg":84.8286,"bstar":0.00045755,"rev_number":6462,"period_min":94.26562912495,"perigee_km":481.47022642916,"apogee_km":484.51931338771,"semimajor_km":6861.1317699084,"source":"CELESTRAK","updated_at":"2026-05-25T13:38:20.005847Z"}}}